This is the latest recevied weather packets stored in our database for station/object KA3BQE-13. If no packets are shown the sender has not sent any weather packets the latest 10 day(s).
| Time | Temp. | Humidity | Pressure | Rain* | Wind** | Luminosity | Snow |
|---|---|---|---|---|---|---|---|
| 1777903324 | 18.89° C | 68% | 1006.3 hPa | 0 mm | - | 414 W/m² | - |
| 1777903021 | 18.33° C | 69% | 1006.3 hPa | 0 mm | - | 397 W/m² | - |
| 1777902717 | 17.78° C | 70% | 1006.6 hPa | 0 mm | - | 375 W/m² | - |
| 1777902415 | 18.33° C | 70% | 1006.6 hPa | 0 mm | - | 327 W/m² | - |
| 1777902111 | 18.33° C | 71% | 1006.6 hPa | 0 mm | - | 375 W/m² | - |
| 1777901810 | 18.33° C | 71% | 1006.6 hPa | 0 mm | - | 309 W/m² | - |
| 1777901507 | 17.78° C | 72% | 1006.7 hPa | 0 mm | - | 233 W/m² | - |
| 1777901204 | 17.78° C | 71% | 1006.9 hPa | 0 mm | - | 275 W/m² | - |
| 1777900902 | 17.78° C | 71% | 1007.1 hPa | 0 mm | - | 285 W/m² | - |
| 1777900599 | 17.78° C | 71% | 1007.3 hPa | 0 mm | - | 219 W/m² | - |
| 1777900296 | 17.78° C | 73% | 1007.5 hPa | 0 mm | - | 246 W/m² | - |
| 1777899992 | 17.22° C | 73% | 1007.3 hPa | 0 mm | - | 242 W/m² | - |
| 1777899689 | 17.22° C | 73% | 1007.4 hPa | 0 mm | - | 190 W/m² | - |
| 1777899387 | 16.67° C | 75% | 1007.4 hPa | 0 mm | - | 157 W/m² | - |
| 1777899084 | 16.11° C | 76% | 1007.6 hPa | 0 mm | - | 135 W/m² | - |
| 1777898781 | 15.56° C | 77% | 1007.5 hPa | 0 mm | - | 120 W/m² | - |
| 1777898479 | 16.11° C | 78% | 1007.5 hPa | 0 mm | - | 109 W/m² | - |
| 1777898176 | 15° C | 80% | 1007.6 hPa | 0 mm | - | 101 W/m² | - |
| 1777897873 | 15° C | 81% | 1007.6 hPa | 0 mm | - | 95 W/m² | - |
| 1777897569 | 14.44° C | 82% | 1007.5 hPa | 0 mm | - | 90 W/m² | - |
| 1777897265 | 14.44° C | 83% | 1007.4 hPa | 0 mm | - | 86 W/m² | - |
| 1777896961 | 13.33° C | 88% | 1007.4 hPa | 0 mm | - | 80 W/m² | - |
| 1777896658 | 12.78° C | 92% | 1007.5 hPa | 0 mm | - | 78 W/m² | - |
| 1777896355 | 12.78° C | 98% | 1007.4 hPa | 0 mm | - | 73 W/m² | - |
| 1777896053 | 12.22° C | 99% | 1007.4 hPa | 0 mm | - | 68 W/m² | - |
* Rain latest hour (hover to see other rain measurements)
** Current wind speed in m/s (hover to see current wind gust speed)